Hourly Data Report for October 04, 2017

All times are specified in Local Standard Time (LST). Add 1 hour to adjust for Daylight Saving Time where and when it is observed.

CLEARWATER AUTO
BRITISH COLUMBIA

51°39'09.300" N
120°04'56.400" W
438.00 m
1161650
71645
VCW

Download Data

Hourly Data (October 2017)
Hourly Data Report for October 4, 2017
Temp Definition
°C
Dew Point Temp Definition
°C
Rel Hum Definition
%
Wind Dir Definition
10's deg

Wind Spd Definition
km/h
Visibility Definition
km
Stn Press Definition
kPa
Hmdx Definition


Wind Chill Definition


Weather Definition


TIME
00:00 -0.3 -2.7 84 0 1   97.40   -1 LegendNANA
01:00 -1.0 -3.5 83 34 3   97.42   -2 LegendNANA
02:00 -1.8 -4.4 82 33 2   97.43   -3 LegendNANA
03:00 -2.0 -4.5 83 3 1   97.44   -2 LegendNANA
04:00 -2.0 -4.6 83 32 1   97.45   -2 LegendNANA
05:00 -2.5 -5.1 82 33 1   97.41   -3 LegendNANA
06:00 -2.6 -5.3 82   0   97.41     LegendNANA
07:00 -1.4 -3.9 83 0 1   97.41   -2 LegendNANA
08:00 0.6 -2.2 82 18 1   97.38     LegendNANA
09:00 3.5 -1.7 68 12 3   97.30     LegendNANA
10:00 6.4 -1.7 56 21 2   97.22     LegendNANA
11:00 9.2 -2.0 45 13 4   97.12     LegendNANA
12:00 11.1 -1.8 40 25 2   97.02     LegendNANA
13:00 13.3 -3.3 32 18 4   96.90     LegendNANA
14:00 14.8 -1.6 32 20 3   96.81     LegendNANA
15:00 15.7 -2.1 29 27 4   96.75     LegendNANA
16:00 16.0 -2.4 28 27 2   96.71     LegendNANA
17:00 11.1 2.6 56 30 5   96.71     LegendNANA
18:00 7.8 2.0 66 32 4   96.77     LegendNANA
19:00 5.5 1.5 75 34 1   96.81     LegendNANA
20:00 4.4 0.8 78   0   96.84     LegendNANA
21:00 3.4 0.4 81   0   96.87     LegendNANA
22:00 2.6 0.0 83 0 1   96.91     LegendNANA
23:00 2.0 -0.6 83 0 1   96.90     LegendNANA

Notes on Data Quality.

Legend

  • E = Estimated
  • M = Missing
  • NA = Not Available
  • ‡ = Partner data that is not subject to review by the National Climate Archives
Date modified: